Location: Pedimozza
(42.0500°N, 9.3500°E)
Time: 20:09:57
(UTC+00:00)

Meteor 1-14 Rocket - Pass Details

Date: 19 August 2019
Orbit: 833 x 919 km, 81.3° (Epoch: 14 September)

Event Time Altitude Azimuth Distance (km) Brightness Sun altitude
Rises 19:01:03 0° 174° (S) 3,543 7.1 -8.3°
Reaches altitude 10° 19:03:34 10° 170° (S) 2,606 6.4 -8.7°
Maximum altitude 19:09:21 54° 94° (E) 1,101 4.5 -9.7°
Drops below altitude 10° 19:15:08 10° 19° (NNE) 2,605 6.9 -10.6°
Sets 19:17:38 0° 15° (NNE) 3,541 7.6 -11.0°
